Location: Bittkow
(50.3000°N, 19.0000°E)
Time: 22:17:03
(UTC+00:00)

Cosmos 1536 - Pass Details

Date: 19 September 2020
Orbit: 541 x 558 km, 82.5° (Epoch: 20 October)

Event Time Altitude Azimuth Distance (km) Brightness Sun altitude
Rises 03:44:22 0° 344° (NNW) 2,756 6.3 -7.5°
Reaches altitude 10° 03:46:36 10° 338° (NNW) 1,857 5.4 -7.1°
Maximum altitude 03:50:30 44° 267° (W) 780 3.2 -6.5°
Drops below altitude 10° 03:54:21 10° 194° (SSW) 1,841 5.3 -5.9°
Sets 03:56:35 0° 188° (S) 2,730 6.2 -5.5°
